Change the Weather History Date:

Friday, June 28, 2013

  Actual Average Record
Temperature  
Mean Temperature 70 °F -  
Max Temperature 93 °F 80 °F 93 °F (2013)
Min Temperature 47 °F 38 °F 30 °F (1923)
Cooling Degree Days 5    
Growing Degree Days 20 (Base 50)    
Moisture  
Dew Point 32 °F    
Average Humidity 30    
Maximum Humidity 64    
Minimum Humidity 6    
Precipitation  
Precipitation 0.00 in - - ()
Sea Level Pressure  
Sea Level Pressure 30.37 in    
Wind  
Wind Speed 2 mph (West)    
Max Wind Speed 12 mph    
Max Gust Speed 20 mph    
Visibility 10 miles    
Events      
Averages and records for this station are not official NWS values.
T = Trace of Precipitation, MM = Missing Value Source: NWS Daily Summary

Daily Weather History Graph

Daily Weather History Graph

Search for Another Location

Airport or City:

Trip Planner

Search our weather history database for the weather conditions in past years. The results will help you decide how hot, cold, wet, or windy it might be!

Date:

Astronomy

Jun. 28, 2013 Rise Set
Actual Time 5:39 AM MDT 8:42 PM MDT
Civil Twilight 5:06 AM MDT 9:15 PM MDT
Nautical Twilight 4:24 AM MDT 9:57 PM MDT
Astronomical Twilight 3:34 AM MDT 10:46 PM MDT
Moon No Moon Rise 11:51 AM MDT (6/28)
Length of Visible Light 16h 08m
Length of Day
15h 02m
Waning Gibbous, 65% of the Moon is Illuminated
Jun 28
Waning Gibbous
Jun 29
Last Quarter
Jul 8
New
Jul 15
First Quarter
Jul 22
Full

Hourly Weather History & Observations

Time (MDT) Temp. Dew Point Humidity Pressure Visibility Wind Dir Wind Speed Gust Speed Precip Events Conditions
12:15 AM 57.9 °F 40.1 °F 52% 30.40 in 10.0 mi Calm Calm - N/A   Clear
12:35 AM 58.1 °F 37.8 °F 47% 30.40 in 10.0 mi Calm Calm - N/A   Clear
12:55 AM 57.2 °F 35.1 °F 43% 30.40 in 10.0 mi NW 3.5 mph - N/A   Clear
1:15 AM 57.9 °F 33.8 °F 40% 30.40 in 10.0 mi Calm Calm - N/A   Clear
1:35 AM 57.0 °F 35.4 °F 44% 30.40 in 10.0 mi Calm Calm - N/A   Clear
1:55 AM 54.9 °F 37.6 °F 52% 30.40 in 10.0 mi Calm Calm - N/A   Clear
2:15 AM 52.2 °F 37.0 °F 56% 30.40 in 10.0 mi Calm Calm - N/A   Clear
2:35 AM 55.8 °F 36.0 °F 47% 30.40 in 10.0 mi Calm Calm - N/A   Clear
2:55 AM 54.0 °F 34.9 °F 49% 30.40 in 10.0 mi Calm Calm - N/A   Clear
3:15 AM 52.2 °F 36.5 °F 55% 30.40 in 10.0 mi Calm Calm - N/A   Clear
3:35 AM 52.5 °F 35.2 °F 52% 30.40 in 10.0 mi Calm Calm - N/A   Clear
3:55 AM 51.6 °F 35.6 °F 54% 30.40 in 10.0 mi Calm Calm - N/A   Clear
4:15 AM 50.2 °F 35.4 °F 57% 30.41 in 10.0 mi Calm Calm - N/A   Clear
4:35 AM 49.1 °F 36.5 °F 62% 30.41 in 10.0 mi Calm Calm - N/A   Clear
4:55 AM 49.6 °F 35.6 °F 59% 30.41 in 10.0 mi Calm Calm - N/A   Clear
5:15 AM 48.7 °F 35.4 °F 60% 30.42 in 10.0 mi Calm Calm - N/A   Clear
5:35 AM 48.6 °F 36.7 °F 64% 30.42 in 10.0 mi Calm Calm - N/A   Clear
5:55 AM 48.0 °F 36.0 °F 63% 30.43 in 10.0 mi Calm Calm - N/A   Clear
6:15 AM 47.5 °F 35.8 °F 64% 30.43 in 10.0 mi Calm Calm - N/A   Clear
6:35 AM 49.5 °F 36.0 °F 60% 30.43 in 10.0 mi Calm Calm - N/A   Clear
6:55 AM 51.1 °F 36.9 °F 58% 30.44 in 10.0 mi Calm Calm - N/A   Clear
7:15 AM 52.9 °F 37.2 °F 55% 30.44 in 10.0 mi Calm Calm - N/A   Clear
7:35 AM 54.7 °F 37.6 °F 53% 30.44 in 10.0 mi Calm Calm - N/A   Clear
7:55 AM 59.2 °F 35.6 °F 41% 30.44 in 10.0 mi Calm Calm - N/A   Clear
8:15 AM 60.1 °F 37.8 °F 44% 30.44 in 10.0 mi Calm Calm - N/A   Clear
8:35 AM 63.7 °F 36.7 °F 37% 30.44 in 10.0 mi Calm Calm - N/A   Clear
8:55 AM 65.3 °F 37.9 °F 36% 30.44 in 10.0 mi Calm Calm - N/A   Clear
9:15 AM 68.0 °F 36.3 °F 31% 30.44 in 10.0 mi Calm Calm - N/A   Clear
9:35 AM 70.0 °F 37.0 °F 30% 30.44 in 10.0 mi Calm Calm - N/A   Clear
9:55 AM 72.3 °F 36.0 °F 26% 30.42 in 10.0 mi Calm Calm - N/A   Clear
10:15 AM 73.9 °F 37.4 °F 27% 30.42 in 10.0 mi Calm Calm - N/A   Clear
10:35 AM 77.0 °F 36.0 °F 23% 30.42 in 10.0 mi Calm Calm - N/A   Clear
10:55 AM 78.3 °F 34.2 °F 20% 30.42 in 10.0 mi Calm Calm - N/A   Clear
11:15 AM 80.1 °F 32.5 °F 18% 30.41 in 10.0 mi Calm Calm - N/A   Clear
11:35 AM 81.9 °F 31.5 °F 16% 30.41 in 10.0 mi Calm Calm - N/A   Clear
11:55 AM 83.5 °F 28.6 °F 14% 30.41 in 10.0 mi SW 3.5 mph - N/A   Clear
12:15 PM 84.7 °F 20.7 °F 9% 30.40 in 10.0 mi Calm Calm - N/A   Clear
12:35 PM 86.5 °F 22.3 °F 10% 30.40 in 10.0 mi Calm Calm - N/A   Clear
12:55 PM 88.5 °F 21.2 °F 9% 30.39 in 10.0 mi Calm Calm - N/A   Clear
1:15 PM 89.6 °F 19.6 °F 8% 30.38 in 10.0 mi South 6.9 mph - N/A   Clear
1:35 PM 89.2 °F 21.2 °F 8% 30.38 in 10.0 mi SW 9.2 mph - N/A   Clear
1:55 PM 90.5 °F 23.5 °F 9% 30.37 in 10.0 mi SW 8.1 mph - N/A   Clear
2:15 PM 90.3 °F 23.5 °F 9% 30.36 in 10.0 mi South 4.6 mph - N/A   Clear
2:35 PM 91.8 °F 25.9 °F 9% 30.36 in 10.0 mi West 5.8 mph - N/A   Clear
2:55 PM 91.6 °F 25.0 °F 9% 30.34 in 10.0 mi WSW 11.5 mph - N/A   Clear
3:15 PM 92.5 °F 24.3 °F 9% 30.34 in 10.0 mi SSW 9.2 mph - N/A   Clear
3:35 PM 90.3 °F 21.6 °F 8% 30.34 in 10.0 mi WNW 4.6 mph - N/A   Clear
3:55 PM 92.7 °F 17.2 °F 6% 30.33 in 10.0 mi NNW 3.5 mph - N/A   Clear
4:15 PM 93.7 °F 19.8 °F 7% 30.32 in 10.0 mi West 10.4 mph - N/A   Clear
4:35 PM 91.9 °F 16.2 °F 6% 30.32 in 10.0 mi WNW 6.9 mph - N/A   Clear
4:55 PM 91.6 °F 17.8 °F 7% 30.31 in 10.0 mi WNW 11.5 mph 19.6 mph N/A   Scattered Clouds
5:15 PM 92.3 °F 18.7 °F 7% 30.31 in 10.0 mi NW 10.4 mph 16.1 mph N/A   Clear
5:35 PM 91.2 °F 20.7 °F 8% 30.30 in 10.0 mi NW 11.5 mph - N/A   Clear
5:55 PM 88.2 °F 20.1 °F 8% 30.30 in 10.0 mi NW 3.5 mph - N/A   Clear
6:15 PM 90.5 °F 25.7 °F 10% 30.30 in 10.0 mi WNW 4.6 mph - N/A   Clear
6:35 PM 90.3 °F 24.1 °F 9% 30.29 in 10.0 mi WNW 4.6 mph - N/A   Clear
6:55 PM 87.8 °F 27.5 °F 11% 30.29 in 10.0 mi Calm Calm - N/A   Clear
7:15 PM 84.9 °F 32.2 °F 15% 30.29 in 10.0 mi Calm Calm - N/A   Clear
7:35 PM 81.3 °F 36.0 °F 20% 30.29 in 10.0 mi Calm Calm - N/A   Clear
7:55 PM 80.8 °F 29.3 °F 15% 30.29 in 10.0 mi Calm Calm - N/A   Clear
8:15 PM 78.1 °F 37.0 °F 23% 30.28 in 10.0 mi SE 5.8 mph - N/A   Clear
8:35 PM 75.0 °F 38.7 °F 27% 30.28 in 10.0 mi East 3.5 mph - N/A   Clear
8:55 PM 73.4 °F 38.3 °F 28% 30.28 in 10.0 mi Calm Calm - N/A   Clear
9:15 PM 70.2 °F 37.9 °F 31% 30.29 in 10.0 mi Calm Calm - N/A   Clear
9:35 PM 69.8 °F 37.9 °F 31% 30.29 in 10.0 mi East 4.6 mph - N/A   Clear
9:55 PM 68.7 °F 37.9 °F 32% 30.30 in 10.0 mi East 3.5 mph - N/A   Clear
10:15 PM 68.9 °F 37.6 °F 32% 30.29 in 10.0 mi Calm Calm - N/A   Clear
10:35 PM 67.5 °F 36.1 °F 32% 30.30 in 10.0 mi Calm Calm - N/A   Clear
10:55 PM 66.4 °F 34.7 °F 31% 30.30 in 10.0 mi NNW 5.8 mph - N/A   Clear
11:15 PM 69.1 °F 33.6 °F 27% 30.30 in 10.0 mi Calm Calm - N/A   Clear
11:35 PM 66.0 °F 34.9 °F 32% 30.31 in 10.0 mi NNE 5.8 mph - N/A   Clear
11:55 PM 71.2 °F 38.5 °F 30% 30.30 in 10.0 mi ESE 4.6 mph - N/A   Clear